C/2019 D1 ( Flewelling )

Japanese version
Home page
Updated on April 21, 2019

---------------------------------------------------------------------

* Profile

Discovery Date February 26, 2019
Magnitude 16.7 mag
Discoverer Heather Flewelling (Asteroid Terrestrial-Impact Last Alert System (ATLAS) search program)

* Pictures

* Orbital Elements

Epoch 2019 Apr. 27.0 TT = JDT 2458600.5
T 2019 May 11.91583 TT                                  MPCW
q   1.5767294            (2000.0)            P               Q
z  +0.0089688      Peri.   70.52388     +0.40609205     +0.80092938
 +/-0.0020000      Node   231.70548     -0.89419962     +0.44754220
e   0.9858586      Incl.   34.09930     +0.18840460     +0.39776639
From 137 observations 2019 Feb. 26-Mar. 21, mean residual 0".6.

* Finding Charts

* Magnitudes Graph

        m1 = 12.0 + 5 log d + 10.0 log r

---------------------------------------------------------------------

The orbital elements are published on M.P.E.C. 2019-F53.
The charts are made with StellaNavigator Ver.10 (AstroArts).
The magnitudes graphs are made with Comet for Windows.

---------------------------------------------------------------------

Copyright(C) Seiichi Yoshida (comet@aerith.net). All rights reserved.